TimeCST,TemperatureF,Dew PointF,Humidity,Sea Level PressureIn,VisibilityMPH,Wind Direction,Wind SpeedMPH,Gust SpeedMPH,PrecipitationIn,Events,Conditions,WindDirDegrees,DateUTC
12:51 AM,30.9,24.1,76,29.97,8.0,Calm,Calm,-,N/A,,Overcast,0,2013-02-05 06:51:00
1:51 AM,30.9,24.1,76,29.98,7.0,Calm,Calm,-,N/A,,Overcast,0,2013-02-05 07:51:00
2:51 AM,30.0,24.1,79,29.97,7.0,NW,4.6,-,N/A,,Mostly Cloudy,310,2013-02-05 08:51:00
3:51 AM,30.0,24.1,79,29.97,7.0,Calm,Calm,-,N/A,,Overcast,0,2013-02-05 09:51:00
4:51 AM,30.0,24.1,79,29.98,7.0,Calm,Calm,-,N/A,,Overcast,0,2013-02-05 10:51:00
5:27 AM,30.2,24.8,80,29.96,7.0,Calm,Calm,-,N/A,,Overcast,0,2013-02-05 11:27:00
5:51 AM,30.0,24.1,79,29.98,7.0,SSW,3.5,-,N/A,,Overcast,210,2013-02-05 11:51:00
6:51 AM,30.9,25.0,79,29.97,6.0,South,4.6,-,N/A,,Haze,180,2013-02-05 12:51:00
7:51 AM,30.9,25.0,79,29.98,6.0,South,5.8,-,N/A,,Haze,180,2013-02-05 13:51:00
8:51 AM,34.0,26.1,73,29.99,5.0,South,6.9,-,N/A,,Haze,190,2013-02-05 14:51:00
9:51 AM,37.0,27.0,67,29.99,6.0,SSW,8.1,-,N/A,,Haze,200,2013-02-05 15:51:00
10:51 AM,43.0,28.9,58,29.96,8.0,SW,11.5,-,N/A,,Mostly Cloudy,220,2013-02-05 16:51:00
11:51 AM,46.9,28.9,50,29.95,9.0,WSW,12.7,-,N/A,,Mostly Cloudy,250,2013-02-05 17:51:00
12:51 PM,51.1,30.9,46,29.92,10.0,WSW,12.7,-,N/A,,Mostly Cloudy,250,2013-02-05 18:51:00
1:51 PM,55.0,32.0,42,29.92,10.0,West,13.8,-,N/A,,Partly Cloudy,270,2013-02-05 19:51:00
2:51 PM,55.9,30.9,39,29.93,10.0,West,16.1,24.2,N/A,,Partly Cloudy,280,2013-02-05 20:51:00
3:51 PM,55.9,32.0,40,29.95,10.0,WNW,16.1,23.0,N/A,,Partly Cloudy,300,2013-02-05 21:51:00
4:51 PM,52.0,30.9,45,29.98,10.0,NW,13.8,21.9,N/A,,Clear,310,2013-02-05 22:51:00
5:51 PM,48.0,30.9,52,30.01,10.0,WNW,8.1,-,N/A,,Clear,300,2013-02-05 23:51:00
6:51 PM,45.0,30.9,58,30.04,10.0,NW,6.9,-,N/A,,Clear,310,2013-02-06 00:51:00
7:51 PM,42.1,30.9,65,30.07,10.0,NW,5.8,-,N/A,,Clear,320,2013-02-06 01:51:00
8:51 PM,42.1,30.0,62,30.11,10.0,North,9.2,-,N/A,,Clear,360,2013-02-06 02:51:00
9:51 PM,39.9,30.0,68,30.14,10.0,NNE,8.1,-,N/A,,Clear,20,2013-02-06 03:51:00
10:51 PM,36.0,28.0,73,30.15,10.0,North,4.6,-,N/A,,Clear,350,2013-02-06 04:51:00
11:51 PM,35.1,28.0,76,30.17,10.0,Calm,Calm,-,N/A,,Clear,0,2013-02-06 05:51:00